Погода в Селенгинске

Россия / Республика Бурятия     52°00′19″N   106°51′45″E
темп.,
°C
ветер,
м/с
пор.,
м/с
влажн.,
%
обл.,
%
осадки,
мм/ч
давл.,
гПа
погр.,
м
11 мая, вт
вт1123:00+2зюз2499100 4.1 1015247
02:00+2зюз3597100 6.9 1015322
05:00+2зюз3698100 0.1 1016252
08:00+3зюз479595 0.1 1017402
11:00+5зюз478798 0.1 1017638
14:00+10з576545 0.2 10151221
17:00+10зюз576242 0.1 1014864
20:00+7юз347784 0.2 1015107
12 мая, ср
ср1223:00+3ююз22838 0.1 101527
02:00+3ююз22855 0.1 101529
05:00+2ююз228742 0.1 101427
08:00+8зюз276788 0.3 1012562
11:00+7зсз4777100 0.4 10121106
14:00+7юз358265 2.8 1013672
17:00+9з696144 0.4 10111781
20:00+5з367449 0.4 1012215
13 мая, чт
чт1323:00+1юз228830 0.0 101533
02:000ююз228968 0.0 101517
05:00−1юз118790 0.0 101613
08:00+3зсз36615 0.0 1016859
11:00+6зсз464585 0.4 10151935
14:00+8зсз673898 0.8 10142183
17:00+8сз573896 0.1 10141979
20:00+4юз236251 0.1 101572
14 мая, пт
пт1423:00+1зюз227236 0.0 101740
02:00+1юз227653 0.0 101731
05:00−1юз22814 0.0 101723
08:00+5з34545 0.0 1017584
11:00+9сз46415 0.0 10151518
14:00+12сз35320 0.0 10131868
17:00+13ссз23300 0.0 10121606
20:00+8юв12470 0.0 101313
15 мая, сб
сб1523:00+4ююв33520 0.0 101441
02:00+4юв35530 0.0 101360
05:00+3ююв24590 0.0 101360
08:00+10юв13405 0.0 1011307
11:00+14зсз563787 0.0 10111153
14:00+13з68465 0.0 10121361
17:00+10з7956100 0.0 10141046
20:00+4юз48675 0.0 1013239